Home > Weather > Kvernaland > Past weeks

Flag for Norway Past Weather in Kvernaland, Norway — Yesterday and Last 2 Weeks

Now
59 °F

Partly sunny.


Feels Like: 58 °F
Forecast: 54 / 59 °F
Wind: 7 mph from South

Location: Stavanger / Sola

Current Time: Jun 29, 2016 at 8:23:59 PM

Latest Report: Jun 29, 2016 at 7:00 PM


Visibility: 28 mi

Pressure: 29.65 "Hg

Humidity: 81%

Dew Point: 53 °F

Location of KvernalandLocation

Past Weather in Kvernaland — Graph

°F

Kvernaland Temperature Yesterday

Maximum temperature yesterday: 62 °F (at 2:00 PM)
Minimum temperature yesterday: 50 °F (at 5:00 AM)
Average temperature yesterday: 57 °F

High & Low Weather Summary for the Past Weeks

 TemperatureHumidityPressure
High69 °F (Jun 23, 2:00 PM)98% (Jun 21, 2:00 AM)30.14 "Hg (Jun 21, 2:00 AM)
Low46 °F (Jun 20, 2:00 AM)57% (Jun 15, 5:00 PM)29.54 "Hg (Jun 15, 6:00 AM)
Average58 °F83%29.84 "Hg
* Reported Jun 14 7:00 PM — Jun 29 7:00 PM, Kvernaland, Weather by CustomWeather, © 2016

Note: Actual official high and low records may vary slightly from our data, if they occured in-between our weather recording intervals... More about our weather records

Advertising

Kvernaland Weather History for the Previous 24 Hours

Scroll right to see more
 ConditionsComfort  
Time TempWeatherWind HumidityBarometerVisibility
7:00 PM
Wed, Jun 29
59 °FPartly sunny.7 mph81%29.65 "Hg28 mi
6:00 PM59 °FOvercast.6 mph86%29.65 "Hg18 mi
5:00 PM58 °FRain showers. Partly sunny.9 mph84%29.66 "Hg8 mi
4:00 PM61 °FLight rain. Partly sunny.10 mph62%29.64 "Hg17 mi
3:00 PM63 °FPartly sunny.8 mph57%29.64 "Hg28 mi
2:00 PM61 °FOvercast.8 mph63%29.66 "Hg31 mi
1:00 PM59 °FOvercast.5 mph71%29.69 "Hg25 mi
12:00 PM57 °FLight rain. Partly sunny.2 mph74%29.72 "Hg19 mi
11:00 AM59 °FRain showers. Scattered clouds.6 mph70%29.73 "Hg19 mi
10:00 AM59 °FSunny.5 mph64%29.75 "Hg22 mi
9:00 AM59 °FSunny.6 mph66%29.76 "Hg25 mi
8:00 AM57 °FSunny.3 mph71%29.77 "Hg16 mi
7:00 AM55 °FSunny.2 mph75%29.78 "Hg25 mi
6:00 AM54 °FPartly sunny.3 mph79%29.79 "Hg31 mi
5:00 AM54 °FPartly sunny.2 mph79%29.79 "Hg31 mi
3:00 AM54 °FCool.2 mph83%29.83 "Hg31 mi
2:00 AM55 °FPassing clouds.3 mph83%29.85 "Hg31 mi
1:00 AM54 °FPassing clouds.1 mph84%29.86 "Hg28 mi
12:00 AM54 °FOvercast.1 mph84%29.87 "Hg22 mi
11:00 PM
Tue, Jun 28
57 °FClear.1 mph77%29.88 "Hg22 mi
10:00 PM58 °FSunny.1 mph71%29.88 "Hg28 mi
9:00 PM60 °FSunny.1 mph70%29.88 "Hg25 mi
8:00 PM59 °FSunny.3 mph72%29.90 "Hg22 mi
Weather by CustomWeather, © 2016

See weather overviewHow to use our weather pages